GFSMW_sfc_dewp_084.txt.gz
Dewpoint
50 53 54 55 55 56 57 57 56 57 59 58 58 58 57 58 58 56 55 54 48 49 50 49 50 48 47 49 51 48 48 44 44 40 41 42 45 46 44 44 46 49 50
51 53 54 55 55 55 57 57 56 56 57 58 59 58 58 58 57 56 55 54 54 49 49 51 51 51 51 53 52 52 49 47 46 45 47 45 44 43 44 43 44 47 44
50 53 54 55 56 55 56 57 56 56 57 58 58 58 57 58 57 57 55 54 54 51 50 52 53 54 53 53 54 53 52 48 49 49 48 48 48 48 46 46 44 46 46
47 52 53 54 56 55 55 57 57 56 56 57 57 56 54 54 55 55 55 55 55 54 50 52 53 55 53 53 55 53 53 53 50 49 48 52 52 47 49 48 48 46 44
47 51 53 54 55 54 54 56 57 56 56 57 57 57 55 54 56 54 53 53 56 56 53 53 54 55 53 55 55 55 55 53 53 52 51 51 51 52 50 49 49 49 49
46 50 53 54 54 54 54 56 56 56 56 56 57 57 56 55 55 53 52 49 52 53 56 53 55 55 54 55 56 57 57 56 55 54 54 53 51 50 51 50 51 52 51
45 49 52 53 54 54 54 54 55 55 56 56 56 56 56 55 55 53 52 50 50 49 54 56 55 55 56 56 58 59 58 58 57 57 55 55 54 54 53 51 51 51 53
44 48 51 53 53 54 54 54 54 54 56 56 56 57 56 56 55 54 52 52 53 53 55 57 58 58 58 58 59 59 59 59 59 58 58 57 57 56 54 52 51 48 48
42 46 50 53 54 54 54 54 54 55 55 55 56 56 57 56 56 55 55 54 56 53 57 58 58 58 59 59 59 58 58 59 60 60 59 58 57 58 57 55 53 49 45
39 45 48 53 53 54 54 55 55 55 55 56 56 55 55 56 55 56 56 56 56 56 56 57 57 57 57 57 58 58 58 58 59 60 59 58 58 58 57 54 53 51 50
40 45 47 50 53 54 54 54 54 53 54 54 56 56 56 55 56 56 56 56 58 56 56 56 55 55 54 55 56 58 58 58 58 59 57 57 57 54 53 53 51 50 51
42 45 47 49 51 53 53 53 53 52 54 55 55 56 56 56 56 57 57 58 57 57 55 55 54 54 53 54 55 56 57 57 57 56 56 55 54 53 52 51 49 48 49
40 45 48 48 50 51 52 52 53 53 53 54 55 56 56 56 57 57 57 57 56 55 54 54 54 53 54 53 55 55 56 56 56 56 55 54 52 51 50 50 48 47 45
37 44 47 48 49 50 52 52 52 53 53 53 53 55 56 56 56 56 56 55 54 53 53 54 54 54 53 52 53 55 56 57 56 56 54 53 50 49 47 45 46 44 42
32 39 45 48 49 50 51 51 52 53 53 52 52 53 54 54 54 54 55 54 54 53 53 54 54 55 55 55 56 56 56 56 55 52 50 48 47 45 44 45 44 42 40
32 33 39 45 49 50 51 51 51 53 53 52 52 52 52 52 53 53 53 53 54 54 55 55 56 56 56 49 45 52 54 51 47 42 40 39 39 37 36 35 35 37 36
34 35 35 39 46 50 51 51 51 52 52 52 52 51 52 51 52 52 52 53 55 56 56 57 57 56 52 41 41 42 47 44 40 37 36 34 32 31 29 29 28 28 28
33 34 35 37 40 46 50 51 51 51 51 51 51 51 52 52 51 51 51 55 55 55 52 48 46 45 41 39 38 37 37 36 35 34 33 32 30 30 28 25 24 23 23
38 37 38 36 40 42 45 49 50 51 51 51 51 51 52 52 53 54 54 52 48 46 44 44 42 39 37 36 35 34 32 31 30 30 30 30 30 30 26 23 23 21 23
45 46 47 40 42 48 48 48 49 50 50 52 52 53 54 53 53 49 46 44 43 40 38 37 37 35 35 34 34 32 29 28 28 28 27 27 26 26 26 24 22 19 20
48 49 49 47 45 49 50 50 50 51 52 53 52 52 51 48 46 43 42 39 36 35 33 32 32 33 33 33 32 31 28 26 24 21 21 24 27 26 24 24 22 21 20
48 48 49 49 50 51 51 51 51 50 49 47 45 44 44 43 41 39 37 35 34 32 31 29 28 28 29 29 29 28 27 25 22 18 21 24 26 24 22 22 22 20 20
47 47 48 48 49 50 49 46 45 44 44 43 42 40 40 39 38 36 35 33 33 31 30 28 27 26 25 26 26 25 25 26 25 24 24 25 25 22 22 21 18 19 22
45 45 44 43 43 44 44 44 43 42 40 38 37 36 36 35 35 34 34 33 32 30 29 27 25 24 22 24 27 28 28 28 26 24 24 25 25 23 22 20 20 21 20
42 41 40 40 39 41 42 41 40 39 36 34 33 32 31 31 30 30 31 30 31 31 27 26 26 26 27 28 29 30 29 29 26 26 24 23 22 20 20 20 19 18 18
35 35 35 34 33 33 35 37 37 36 33 31 31 31 29 29 28 27 27 30 30 31 31 31 29 29 27 24 23 23 22 21 20 24 24 24 23 21 18 18 18 18 17

GFSMW_sfc_dewp_087.txt.gz
Dewpoint
43 48 52 53 54 55 56 57 57 58 59 58 57 56 56 56 56 55 56 55 54 52 52 50 51 49 48 49 52 52 52 48 47 41 42 44 46 47 47 49 49 49 51
43 48 52 54 55 55 56 56 57 57 58 58 57 56 56 55 55 54 53 51 52 50 51 52 50 51 49 52 53 53 49 46 49 44 45 45 44 45 46 46 47 52 49
43 48 52 54 56 55 55 55 56 56 58 59 58 57 56 57 56 55 52 51 50 48 50 55 52 54 54 54 56 55 53 49 49 51 49 49 49 51 47 50 47 51 49
42 48 51 53 55 56 55 56 56 56 57 59 57 55 53 52 53 52 50 53 54 52 50 54 56 55 55 55 56 54 55 54 50 50 49 53 52 50 51 50 50 50 49
40 46 51 53 54 56 55 56 57 56 56 58 57 57 54 52 52 52 52 53 56 56 53 52 56 56 55 57 58 57 56 54 52 51 51 52 51 54 50 46 51 50 49
38 44 50 52 54 55 56 56 56 56 56 57 57 56 55 53 54 52 52 54 54 55 55 52 56 56 57 57 57 58 57 57 57 55 55 52 50 49 50 50 51 53 54
37 43 49 51 53 55 54 56 56 55 56 57 57 57 56 54 55 53 53 51 52 53 55 55 57 56 57 57 57 59 59 59 57 58 56 56 54 53 54 54 54 53 55
37 42 48 51 52 54 54 54 54 55 56 56 56 57 57 54 54 55 53 51 51 52 54 58 57 56 57 57 58 58 59 60 60 60 59 57 57 57 56 55 54 52 52
35 40 46 52 53 54 54 55 54 55 56 56 57 56 57 57 55 55 54 52 50 48 51 56 57 58 58 58 59 59 60 60 61 61 61 59 58 59 58 57 56 54 50
31 39 44 51 52 54 55 55 55 54 56 56 57 57 57 57 57 56 55 55 52 52 53 55 57 58 58 59 59 59 59 59 60 59 60 60 59 59 60 60 58 55 52
31 37 43 48 52 53 54 54 54 53 55 56 56 57 57 58 58 58 57 57 56 55 55 55 57 57 58 58 58 58 58 57 58 59 59 59 59 59 60 57 55 54 52
35 37 43 47 51 52 53 53 53 52 55 57 57 57 57 57 57 58 59 59 57 57 56 56 56 56 56 57 57 57 56 56 57 57 58 58 57 57 57 55 53 52 52
39 41 44 45 49 52 53 53 53 53 54 54 57 58 58 57 58 58 59 58 58 57 57 56 56 56 56 56 56 56 56 56 56 56 57 57 56 56 55 52 52 51 50
34 39 43 45 47 50 52 52 53 54 54 52 54 56 58 58 58 58 57 57 57 57 56 57 56 57 55 54 54 53 55 56 56 57 57 57 56 55 54 51 50 47 45
28 33 41 45 46 48 52 53 54 54 54 52 53 55 57 57 56 58 58 57 57 57 57 56 56 56 55 53 55 54 54 55 56 56 55 52 51 47 48 47 46 45 43
29 32 34 41 46 47 49 52 53 54 54 53 54 53 55 54 56 57 57 58 57 56 56 55 55 56 53 47 45 51 57 56 54 45 41 40 40 38 38 37 37 41 40
31 33 34 34 40 47 49 50 52 54 54 54 53 53 53 53 55 54 54 55 56 57 56 56 55 55 57 43 43 43 49 46 41 39 36 35 34 34 33 33 33 33 33
35 36 34 36 36 39 47 50 50 51 53 53 52 52 52 52 52 52 53 54 56 56 56 56 54 50 43 41 41 39 38 36 35 35 34 33 32 32 31 29 27 27 27
42 43 43 43 39 37 39 48 49 50 50 51 52 52 53 52 52 52 54 55 56 51 48 46 43 39 37 36 36 35 34 32 31 32 32 32 32 32 30 27 27 26 24
45 46 47 47 43 40 42 43 48 49 49 51 50 51 52 52 53 54 53 50 47 42 38 36 37 35 34 34 34 33 32 30 29 29 30 31 29 29 28 27 25 24 24
46 48 48 48 49 45 46 45 46 48 49 51 51 52 52 53 52 47 44 41 38 36 35 33 33 33 33 33 32 32 30 28 27 26 27 29 28 26 26 27 27 24 22
47 48 48 49 50 50 49 48 50 51 51 49 47 46 44 43 42 40 38 37 37 33 31 29 29 29 30 30 30 29 27 26 23 22 25 27 25 24 25 23 21 21 23
47 47 46 45 45 48 48 46 46 45 44 42 41 39 39 38 38 37 37 34 32 31 30 27 26 26 27 28 28 28 28 28 26 27 27 26 24 23 23 21 18 21 22
45 44 43 42 42 43 43 43 41 40 38 36 35 35 34 34 35 35 33 32 31 29 28 26 24 24 26 27 28 28 28 27 26 27 28 27 25 23 23 21 21 22 21
39 39 38 36 36 39 40 39 38 36 34 33 32 31 31 31 29 29 30 29 30 29 27 26 27 27 26 28 30 31 31 29 28 26 25 24 23 23 23 23 23 22 21
34 33 33 34 33 33 33 36 36 35 33 31 30 30 29 28 27 26 27 30 30 30 30 29 27 28 28 28 26 24 23 23 24 25 26 26 24 22 19 20 19 18 18

GFSMW_sfc_dewp_093.txt.gz
Dewpoint
41 47 51 53 57 57 56 56 57 59 58 57 56 56 55 56 56 58 59 60 61 60 59 58 57 55 54 51 50 52 49 49 48 47 48 49 51 50 51 52 52 52 52
42 49 51 55 56 56 56 56 57 58 57 57 56 55 55 55 55 56 56 57 58 58 57 56 55 54 52 51 51 51 49 48 50 47 46 43 44 48 50 50 52 52 52
42 50 50 54 56 55 55 56 57 58 57 57 55 55 54 54 53 53 54 55 56 56 56 55 53 52 51 51 50 50 48 46 48 47 46 46 44 45 46 48 50 50 51
45 50 50 54 55 55 56 56 56 58 57 56 54 53 52 51 52 52 53 54 55 55 54 53 52 52 50 49 51 52 49 47 45 48 53 53 53 48 47 47 48 48 48
46 50 51 53 55 56 55 55 56 57 56 55 54 52 51 51 52 52 52 53 54 55 54 53 52 52 52 50 52 53 52 51 50 49 50 50 52 52 50 47 46 48 49
46 51 52 53 55 55 55 55 56 57 56 55 53 51 50 50 50 50 51 51 51 51 52 52 50 51 51 53 53 55 55 55 54 54 53 51 50 50 50 48 49 48 49
45 51 52 53 54 54 54 55 55 57 56 54 53 51 52 52 50 49 50 49 49 50 52 51 52 53 53 55 54 55 56 56 56 55 54 55 53 52 51 50 49 49 52
45 51 52 53 53 54 54 54 54 56 56 55 53 51 52 52 51 49 50 49 48 49 51 53 54 54 54 55 56 56 56 57 56 56 55 54 54 54 53 52 50 47 48
44 50 52 53 54 53 54 54 54 55 56 56 54 52 52 52 51 50 49 50 50 50 54 53 53 53 55 56 56 56 56 56 55 55 56 55 55 55 55 54 53 51 47
41 50 51 52 54 54 54 54 54 54 55 56 56 53 52 52 52 51 50 50 50 50 53 54 54 53 54 56 56 56 56 56 56 57 56 56 56 55 55 55 55 55 53
34 43 50 52 54 54 53 53 53 54 54 55 56 56 54 53 52 52 50 52 52 52 52 53 53 53 54 55 56 55 56 56 56 56 56 57 56 56 56 56 56 55 55
34 39 50 52 54 54 54 54 53 54 55 55 55 56 56 55 53 52 52 51 52 52 51 51 52 53 53 53 55 55 55 56 56 56 55 56 56 55 56 56 55 55 55
36 41 51 51 53 54 54 54 53 53 53 54 55 55 56 56 54 53 53 52 52 51 51 50 51 51 53 54 54 55 55 56 56 56 55 56 55 55 55 55 55 55 54
35 41 50 51 53 54 54 54 54 54 54 55 55 55 55 56 55 54 53 55 54 52 51 50 50 50 50 52 54 54 54 55 55 56 55 56 55 55 54 54 53 53 53
32 37 44 50 52 53 54 54 54 54 54 54 54 54 54 54 55 56 55 54 54 54 53 52 51 50 49 49 53 54 54 55 55 54 52 45 44 42 45 51 52 51 49
29 35 37 45 52 52 53 53 54 54 54 55 54 54 55 55 56 56 57 56 55 55 53 53 52 51 50 45 44 49 54 54 53 47 41 39 39 37 37 37 37 41 43
41 43 44 44 46 49 54 53 54 54 53 53 55 55 55 55 55 56 55 56 57 57 56 55 54 53 52 45 44 44 53 50 47 43 39 37 37 36 35 35 34 34 34
45 45 46 46 46 47 48 49 54 54 53 53 53 55 56 56 55 55 55 55 55 56 57 56 56 52 43 40 40 40 41 39 39 37 36 35 34 35 34 33 32 32 32
47 48 48 49 49 49 50 49 50 54 53 53 53 53 55 56 56 56 55 56 56 55 53 47 44 41 38 37 37 39 38 35 34 34 34 33 33 34 34 30 29 27 28
47 47 47 46 45 45 49 50 49 51 53 53 53 55 55 54 55 55 54 47 47 40 39 36 37 36 35 36 36 36 34 31 30 30 31 32 31 31 31 29 27 25 24
43 44 43 42 41 42 46 45 45 44 46 45 54 55 55 55 52 47 44 41 38 35 34 32 33 34 34 34 34 34 32 30 28 28 28 30 30 29 27 28 28 28 28
40 39 40 39 39 39 41 40 39 41 42 43 43 44 46 44 43 41 39 38 36 33 32 30 30 31 32 33 33 32 31 30 27 27 27 28 26 28 28 28 28 27 26
36 36 36 36 37 37 37 36 35 36 38 38 38 38 40 41 41 38 35 34 33 32 30 28 28 28 30 30 31 31 30 28 26 28 28 29 29 29 28 28 27 25 25
33 34 35 35 35 35 35 34 34 32 32 31 32 33 33 32 33 34 35 33 32 30 29 27 26 27 27 28 29 29 29 29 29 29 29 28 27 27 27 26 25 23 22
32 32 32 31 31 34 34 34 32 31 29 28 28 29 29 28 28 28 28 28 30 30 28 28 28 27 27 29 30 30 28 28 28 27 27 27 26 24 23 22 21 19 17
28 28 29 29 29 30 32 33 33 30 29 28 27 26 26 26 27 26 26 29 29 30 29 29 28 29 30 30 31 31 31 30 29 25 23 21 21 20 19 18 17 16 16

GFSMW_sfc_dewp_099.txt.gz
Dewpoint
29 42 52 56 57 58 57 57 57 58 58 57 57 57 58 58 60 62 62 61 62 60 59 57 55 52 51 51 49 49 50 50 52 51 51 51 52 52 53 53 53 53 53
41 51 55 56 56 57 56 56 56 57 57 57 56 56 56 56 58 59 60 62 62 60 58 57 55 47 50 51 49 49 50 49 51 50 49 48 49 50 52 52 52 52 53
36 51 55 56 56 56 56 56 56 56 56 56 55 55 55 55 55 56 58 59 62 60 59 57 55 47 52 51 48 49 49 48 49 50 48 46 47 48 49 51 52 52 52
36 49 54 55 55 55 56 56 56 55 55 56 54 54 53 53 53 54 55 57 59 61 59 58 55 49 54 51 49 49 49 49 47 48 51 51 50 48 45 48 51 52 52
31 48 53 54 55 55 55 56 55 55 56 55 53 53 53 53 53 53 54 56 57 60 59 57 54 52 55 52 50 50 50 49 50 48 50 51 52 51 46 44 46 50 51
30 46 51 54 54 54 55 55 55 55 55 54 53 52 53 52 52 52 53 54 55 57 58 57 55 55 55 53 52 52 50 51 51 50 51 50 50 50 50 48 47 47 49
32 45 52 54 54 53 54 54 54 54 54 54 53 52 52 53 52 52 53 54 54 54 56 57 56 55 55 54 53 52 52 51 51 50 50 51 51 52 52 51 50 48 49
38 43 51 54 53 53 53 54 54 54 53 53 53 52 52 52 52 52 52 53 54 54 55 55 55 55 55 54 54 53 53 53 52 51 51 52 52 52 53 51 50 47 48
41 44 51 53 53 53 54 54 54 53 53 53 52 51 51 51 52 52 52 52 54 54 55 55 55 55 55 55 54 55 53 54 54 52 53 52 53 54 54 53 51 49 46
41 47 52 53 54 54 54 54 54 53 53 53 52 51 51 51 51 52 51 51 52 53 54 54 55 55 55 55 54 53 54 54 55 55 54 54 54 54 55 54 53 52 50
40 51 52 53 54 54 54 54 54 53 53 53 52 51 51 51 51 51 51 50 51 51 52 52 53 53 53 53 53 52 52 54 54 55 54 54 54 54 54 54 54 53 52
40 42 52 53 54 54 54 54 54 53 53 53 53 51 52 51 51 50 51 51 50 51 51 52 52 53 53 53 52 51 51 53 53 54 54 54 55 54 54 53 53 53 53
42 42 52 53 53 54 54 53 54 54 53 52 53 52 51 52 51 51 50 51 50 50 52 52 52 52 52 52 52 52 51 51 52 53 54 54 54 54 54 54 53 53 53
45 47 48 52 53 54 54 53 53 54 54 53 53 52 51 51 52 52 51 51 51 51 50 51 51 52 52 52 52 52 52 52 53 53 54 54 54 54 54 53 52 52 52
47 47 51 53 53 53 54 54 54 54 55 54 53 53 53 52 52 52 52 51 51 51 51 50 51 51 50 50 51 51 52 52 53 53 54 54 53 49 50 53 52 52 52
46 45 47 48 53 54 54 54 54 55 54 54 54 54 55 54 53 52 52 52 51 51 51 51 51 50 49 44 43 47 50 51 51 52 52 45 42 40 39 40 40 46 52
45 44 45 45 46 49 51 54 55 56 55 55 54 54 54 54 55 55 53 52 52 52 51 51 50 50 50 43 42 42 49 51 51 51 48 42 40 38 36 35 35 34 34
43 43 43 43 44 46 47 48 53 55 55 54 54 54 53 53 54 55 55 54 53 53 53 52 51 50 50 43 42 40 47 48 45 47 47 44 37 36 36 33 31 31 30
43 42 42 41 40 42 43 44 45 49 53 51 54 55 55 54 54 54 55 55 54 54 54 54 53 52 51 43 42 41 44 39 36 36 38 38 36 35 35 31 29 28 29
38 39 38 37 37 38 41 41 42 42 43 43 44 46 51 55 54 54 54 54 55 54 54 52 46 47 52 39 41 43 41 34 32 32 33 34 34 32 31 29 28 27 27
35 37 36 36 35 36 37 36 37 37 39 39 39 40 41 45 48 54 55 55 54 44 40 36 35 35 37 37 38 39 39 34 31 30 30 31 32 32 31 30 29 27 27
33 33 34 34 34 34 34 33 32 33 34 34 35 34 35 37 40 40 41 40 39 36 33 33 32 32 33 33 34 34 33 32 29 29 30 31 31 31 30 29 29 28 26
31 31 32 32 33 33 32 31 30 30 31 30 30 31 32 33 33 35 34 34 33 32 32 31 30 30 31 31 31 31 31 30 28 29 30 30 29 28 27 27 26 24 23
29 30 30 30 31 32 32 30 30 29 28 28 28 28 29 29 31 32 33 32 31 29 29 28 27 28 28 29 29 30 30 30 29 28 26 25 24 23 22 22 22 22 21
27 28 29 29 30 30 30 29 29 28 26 26 27 27 27 28 28 29 30 30 31 31 28 28 27 26 26 29 30 29 27 27 25 25 24 22 21 19 19 20 19 19 17
26 26 27 28 29 29 28 28 27 26 26 26 25 26 26 27 27 27 27 31 31 32 31 31 29 29 30 30 30 30 29 28 26 22 20 18 18 17 16 15 14 15 14

GFSMW_sfc_dewp_102.txt.gz
Dewpoint
30 35 43 36 54 56 57 58 58 57 57 58 58 58 59 59 60 61 62 62 62 60 59 57 56 57 55 54 53 53 53 53 53 52 51 51 53 53 53 54 54 54 54
30 35 52 53 55 56 57 58 57 57 58 58 59 57 57 57 59 61 62 62 62 60 59 57 56 55 55 53 52 52 52 52 52 50 50 49 50 52 52 53 53 53 54
30 31 50 54 54 55 56 57 57 57 57 57 57 55 55 55 56 57 59 61 61 60 59 57 56 54 55 53 52 52 51 51 52 51 50 48 47 49 51 52 53 53 53
35 31 43 53 54 55 56 56 56 57 57 56 55 54 53 52 54 55 57 58 60 60 59 57 55 54 53 52 50 50 51 51 50 51 50 51 51 49 46 49 52 52 52
38 34 37 52 54 55 55 56 56 56 56 55 55 54 53 53 54 54 55 56 57 60 59 57 56 52 52 52 49 50 50 51 51 49 51 51 52 49 46 46 47 51 52
40 40 38 52 54 55 55 55 55 55 55 54 54 53 52 53 53 53 54 55 56 58 60 58 56 53 54 53 49 52 51 52 51 50 51 50 49 50 49 47 47 48 49
41 41 41 52 54 54 54 54 54 54 54 54 54 52 51 52 52 52 53 54 55 56 58 58 56 53 55 54 52 52 52 52 51 50 50 52 51 52 52 50 49 47 49
41 42 42 47 54 54 54 55 54 54 54 54 53 52 52 52 52 53 53 54 54 55 57 57 54 54 55 54 54 53 53 52 52 51 51 52 52 53 53 51 50 49 48
41 42 42 47 53 54 54 54 53 54 54 53 52 52 52 52 52 52 53 54 54 55 55 56 55 55 55 54 54 52 52 53 52 51 51 51 52 53 53 53 52 51 48
42 43 42 51 53 54 54 54 53 53 53 53 52 52 52 52 52 52 52 53 54 55 55 55 55 55 55 54 54 54 54 53 53 53 52 52 53 53 54 53 53 52 51
42 42 45 52 53 53 53 54 53 53 53 53 52 51 51 51 52 51 52 52 54 54 54 54 54 54 54 54 54 53 53 53 53 53 53 53 54 53 54 54 54 53 53
44 44 47 51 53 53 53 53 53 53 54 53 52 51 51 51 51 51 51 51 51 53 54 54 54 54 54 54 53 53 53 52 52 53 53 52 54 54 54 54 53 53 53
46 47 48 52 53 53 53 52 53 53 54 53 52 51 51 51 51 50 51 51 50 51 52 53 53 53 53 54 53 53 52 52 52 53 53 53 54 53 54 54 53 53 53
47 46 48 53 53 53 52 53 53 54 54 52 52 51 51 51 51 50 50 50 50 51 51 52 52 53 53 53 53 52 52 52 51 52 53 53 53 53 53 53 53 53 52
46 44 46 47 53 53 53 54 55 55 54 53 52 52 51 52 51 51 50 50 50 50 51 51 51 52 52 52 52 52 52 51 51 51 52 53 52 49 51 54 53 53 52
44 44 44 45 46 48 54 54 54 55 55 53 54 53 53 52 51 51 51 50 51 51 50 50 51 51 51 45 44 49 52 52 51 51 51 52 48 47 40 39 37 39 51
43 42 42 42 43 45 46 52 55 55 55 55 55 54 54 53 52 52 52 52 51 51 51 51 50 50 51 43 43 43 51 51 51 51 50 47 43 41 37 35 34 33 33
40 40 39 38 39 41 43 47 53 55 55 54 55 55 54 54 55 53 52 52 52 52 51 51 51 51 50 43 42 41 48 48 48 49 49 47 43 39 37 33 31 30 30
38 38 37 37 36 38 40 41 43 46 46 47 49 50 53 54 54 54 54 54 53 53 53 52 51 51 50 43 42 41 46 46 43 42 43 46 41 37 37 32 29 29 29
36 36 35 35 34 36 36 36 37 37 39 40 41 43 44 48 51 53 54 55 54 53 53 52 50 47 50 43 42 42 48 43 35 34 34 36 36 35 33 30 29 26 26
34 34 34 34 33 33 34 33 33 33 34 35 35 35 36 39 41 44 51 53 54 48 41 34 34 34 34 35 37 39 46 41 33 32 31 32 33 32 32 30 28 26 26
32 33 32 32 32 32 32 30 30 31 31 31 31 31 33 34 35 36 37 37 38 34 33 32 31 31 32 34 34 34 33 33 31 30 31 32 32 31 30 28 28 27 25
31 32 31 31 31 30 30 29 28 29 29 29 29 30 30 31 32 33 33 34 33 32 31 29 28 28 30 31 32 32 32 31 30 30 30 29 28 27 26 26 25 23 22
29 28 29 30 29 29 28 28 28 27 28 28 28 29 29 29 30 30 31 31 30 29 29 28 27 27 28 29 29 29 28 26 24 23 23 23 23 22 21 21 21 21 20
28 28 28 28 28 28 27 26 26 27 26 27 27 28 28 28 27 29 30 29 30 30 28 28 28 27 26 28 28 26 25 25 24 23 22 20 19 18 18 18 18 18 16
25 25 26 27 28 27 26 25 24 25 25 25 25 26 26 26 25 24 25 30 30 30 30 29 28 29 29 29 28 28 27 26 24 20 18 17 16 16 15 14 14 14 13

GFSMW_sfc_dewp_108.txt.gz
Dewpoint
27 25 35 41 43 45 46 46 52 59 60 63 62 61 62 62 62 64 63 63 63 64 63 63 63 61 58 57 58 57 56 57 58 57 57 56 55 54 54 53 51 53 54
17 30 39 44 46 49 50 51 54 58 60 61 61 61 62 62 62 63 64 63 63 63 62 62 62 60 58 58 58 57 56 56 57 55 54 52 53 55 54 52 52 55 53
28 36 41 44 48 48 51 51 54 57 60 61 61 61 62 62 62 62 62 62 62 62 62 62 61 60 59 57 57 57 55 54 56 57 54 50 49 52 54 53 50 56 53
39 40 42 44 46 49 51 53 54 56 58 60 60 60 59 58 59 60 61 62 62 62 62 62 61 59 59 57 56 57 56 55 55 56 57 54 52 49 50 53 51 52 53
42 42 43 44 45 48 54 55 55 56 58 59 60 60 59 58 59 59 59 60 62 62 62 60 58 57 57 57 57 57 56 56 55 55 54 54 53 52 49 48 48 49 50
41 41 42 43 44 48 52 56 56 56 58 59 60 60 60 58 57 57 58 58 60 61 61 59 58 57 57 56 57 57 56 56 56 56 55 54 52 51 49 47 49 47 49
39 40 40 42 44 47 50 54 55 55 57 59 59 60 60 59 58 57 57 56 57 59 60 58 58 57 56 57 56 57 56 56 56 55 56 55 53 52 51 48 47 47 48
39 39 40 42 44 46 49 52 54 54 56 57 58 58 59 58 57 56 55 55 56 58 60 58 58 57 57 57 57 56 57 57 56 55 55 55 54 52 49 45 51 51 50
38 40 42 45 46 48 51 53 54 54 55 57 57 57 58 58 56 57 56 56 57 57 59 58 57 57 56 55 55 55 56 57 56 56 56 55 54 53 52 50 54 48 46
42 43 43 46 46 47 51 53 55 54 55 56 56 56 58 57 57 56 55 56 57 57 57 59 57 56 55 55 55 54 54 55 56 56 55 55 55 54 55 56 54 51 49
43 43 44 45 44 47 48 53 54 54 55 55 55 57 57 57 56 56 55 56 57 56 56 58 58 56 55 55 54 53 54 54 55 55 54 54 55 54 55 55 52 53 50
42 42 43 44 43 44 43 51 54 54 55 55 56 56 56 56 55 55 55 56 56 56 56 56 56 55 55 55 53 52 53 53 53 53 53 53 54 53 54 54 53 51 52
44 43 43 42 42 42 42 53 55 55 55 55 55 56 55 55 54 55 55 55 56 55 56 56 56 55 55 54 53 53 53 53 53 53 52 52 53 53 53 54 53 54 53
43 43 43 43 41 41 41 45 55 55 55 54 54 54 55 54 55 55 55 55 55 55 55 54 55 55 55 54 53 52 51 52 52 53 52 52 53 53 53 53 54 53 53
40 40 40 41 40 39 39 41 55 55 54 54 54 54 54 53 54 54 54 54 54 55 55 55 55 56 55 54 54 52 52 51 51 52 51 52 51 48 49 51 52 53 53
38 38 38 38 38 37 38 40 53 55 54 54 53 53 53 52 53 54 54 54 54 53 55 55 55 55 54 46 46 50 52 51 50 50 51 52 48 48 43 44 43 48 52
36 36 36 37 37 37 38 39 45 55 54 54 54 53 53 52 53 53 53 53 53 54 54 53 55 55 54 44 45 44 54 53 52 52 52 52 51 49 49 39 37 35 34
34 35 35 36 35 36 37 39 45 53 52 51 52 53 53 53 53 52 52 53 53 53 53 54 54 53 54 43 44 43 54 53 53 53 52 52 51 49 45 40 36 34 34
33 35 34 34 35 35 35 36 35 39 40 40 41 42 46 49 53 53 53 54 53 53 54 53 53 53 53 41 42 43 52 54 54 54 54 53 53 46 41 38 33 30 30
32 34 33 33 33 34 34 34 33 33 35 36 37 38 40 41 42 43 46 52 54 54 52 41 39 38 43 37 40 42 50 49 44 39 39 35 44 39 37 38 32 28 26
33 33 32 31 31 33 33 33 33 32 33 34 34 35 35 37 37 39 39 42 44 37 35 33 33 34 35 36 37 39 48 40 34 33 32 33 34 34 34 33 29 25 24
30 32 31 30 31 30 31 30 30 32 33 32 31 32 33 33 34 35 35 36 35 33 32 31 31 31 32 34 35 36 36 35 33 31 31 32 32 31 30 28 27 26 24
30 31 30 30 29 28 29 28 29 30 30 29 29 30 31 31 31 33 33 33 33 31 30 29 28 27 28 29 31 31 31 31 29 29 29 28 28 27 26 25 24 24 23
28 29 28 27 27 28 26 28 29 29 28 28 28 28 28 29 30 30 30 31 31 30 29 28 26 26 26 26 26 26 25 25 24 24 24 23 24 24 25 24 25 26 26
28 28 27 26 26 26 27 26 27 29 28 27 27 28 27 27 27 28 28 28 30 30 28 27 27 26 25 27 27 27 27 26 26 28 28 27 26 27 26 24 24 24 23
24 25 26 24 24 24 24 25 26 28 29 28 26 27 26 27 26 26 26 29 29 29 29 28 28 28 28 29 28 27 27 27 28 31 29 27 26 25 23 21 19 18 17

GFSMW_sfc_dewp_111.txt.gz
Dewpoint
30 31 33 35 36 41 41 41 44 53 60 60 61 63 63 63 63 62 63 63 63 64 64 63 63 64 62 60 60 59 59 58 59 58 58 58 58 57 53 53 53 56 56
28 30 29 34 42 44 45 47 47 48 52 57 59 64 62 62 63 63 63 63 64 63 63 63 63 61 60 60 59 58 57 57 59 57 56 53 55 57 54 53 52 55 54
20 23 29 40 44 46 47 47 48 49 53 57 61 63 63 62 62 63 63 63 63 62 64 63 63 61 60 58 58 57 56 55 57 58 55 52 51 54 56 55 51 56 54
20 25 35 39 43 46 48 51 50 50 52 58 60 61 60 59 60 61 61 62 63 62 62 63 62 61 59 58 58 59 57 56 55 57 58 56 54 51 52 54 52 55 54
34 35 37 38 39 42 47 52 54 53 53 55 60 61 60 60 60 60 61 61 62 62 62 62 62 61 59 58 57 57 56 56 55 55 55 56 55 54 51 49 49 50 51
36 35 37 38 38 42 48 51 53 54 54 56 59 61 60 60 58 59 59 59 62 62 62 62 62 61 60 58 57 57 57 56 55 56 56 55 54 52 52 51 50 49 51
35 36 35 36 38 42 46 48 48 52 55 57 57 61 61 62 60 60 59 59 59 61 62 61 61 60 60 59 57 57 56 56 56 56 56 57 55 54 53 51 49 48 49
36 35 36 40 42 43 46 48 49 49 54 56 57 60 61 60 60 59 58 58 58 59 60 60 59 59 59 59 58 57 56 56 56 56 56 56 56 55 54 50 50 48 47
33 38 40 43 45 45 46 48 49 50 52 55 58 59 60 60 59 60 59 57 57 56 59 60 59 59 58 58 57 57 56 56 56 56 56 56 56 57 55 51 51 50 48
37 40 41 43 44 45 46 48 51 51 51 55 57 58 59 60 60 60 58 57 56 58 60 59 58 58 57 57 57 56 56 56 56 56 56 56 56 56 56 54 54 53 51
39 39 40 42 43 44 44 46 49 52 52 56 57 58 58 59 59 58 58 57 57 57 57 59 58 57 56 56 55 55 56 56 56 56 55 55 56 55 55 54 53 52 51
44 43 42 43 43 43 43 44 45 53 56 56 57 57 57 58 58 58 56 57 57 56 56 57 58 57 56 55 54 54 54 54 55 55 55 55 55 54 55 55 53 51 51
42 42 42 42 42 42 42 42 43 45 56 56 56 56 56 58 57 56 56 56 57 55 56 56 57 56 56 55 55 54 53 54 54 55 54 54 54 53 53 54 53 53 53
41 40 41 41 42 42 41 40 42 43 56 56 56 56 57 57 56 55 56 56 56 55 55 55 56 56 56 55 54 53 53 53 54 55 54 54 53 53 53 53 53 53 53
38 38 39 39 40 40 40 39 41 42 55 55 55 55 56 56 56 55 55 56 55 55 54 55 55 56 55 54 54 53 53 53 53 53 54 53 52 49 51 53 53 53 53
36 36 37 37 37 38 37 38 39 40 46 55 54 55 55 56 55 55 55 55 56 55 55 55 55 55 53 46 46 51 53 52 52 52 52 52 48 48 45 46 46 50 52
35 35 35 35 36 37 36 37 37 38 46 54 54 54 54 54 55 54 54 54 54 55 55 55 55 54 55 45 44 44 53 52 52 51 52 51 51 49 51 40 39 36 35
33 34 34 33 35 35 36 37 36 38 49 50 52 54 54 53 53 53 54 54 54 54 55 55 55 55 55 43 43 42 54 53 53 52 52 52 52 51 49 42 36 33 33
33 33 33 33 34 34 35 35 34 34 37 39 41 43 47 51 53 53 53 54 54 54 54 54 55 54 49 39 41 45 53 53 53 53 53 52 52 46 43 38 32 30 29
32 32 32 31 33 33 34 33 33 33 33 35 36 37 40 42 43 44 47 50 54 51 44 40 38 36 42 36 38 44 52 48 41 37 35 35 42 40 39 37 33 28 26
31 33 33 33 32 33 33 32 32 31 32 34 34 35 35 37 38 39 40 42 39 36 35 33 32 32 34 35 37 39 49 42 34 33 32 33 35 35 35 34 32 27 25
30 31 31 31 33 32 32 32 31 32 33 33 32 32 33 33 35 35 35 35 35 33 32 30 29 29 31 33 34 35 35 35 33 31 31 32 33 32 31 29 28 26 24
30 30 29 29 30 32 32 32 32 32 32 31 31 31 32 31 32 32 33 32 32 31 30 28 27 26 27 28 30 31 31 30 28 28 28 28 28 27 26 26 26 25 24
29 29 28 27 27 29 30 30 30 29 29 28 29 28 28 28 29 29 29 30 30 29 28 27 26 26 26 26 26 26 26 26 25 25 26 25 25 24 26 26 26 26 26
28 28 28 27 26 28 27 27 29 29 27 27 27 27 27 27 26 28 28 27 29 29 27 27 27 26 25 28 28 27 27 27 27 28 28 27 26 25 26 26 26 26 24
25 25 26 26 27 27 27 26 28 29 28 27 26 27 26 26 26 25 25 29 29 30 30 28 28 29 29 29 29 30 31 31 30 30 29 29 28 26 24 22 21 20 19

GFSMW_sfc_dewp_114.txt.gz
Dewpoint
32 35 39 42 46 46 46 48 52 63 65 65 66 65 65 64 64 64 65 64 64 66 65 64 64 64 63 62 62 61 60 59 60 59 59 59 60 59 57 56 57 56 57
31 34 37 44 44 44 50 51 51 52 58 62 62 64 64 64 63 64 64 64 65 65 63 64 63 63 62 61 61 59 58 58 60 57 56 54 56 57 57 57 56 55 55
31 32 34 44 49 49 52 50 50 51 54 54 60 63 65 64 62 62 62 64 64 64 64 63 63 62 61 60 60 59 57 56 58 59 56 52 51 54 56 55 55 55 55
28 27 34 43 47 50 52 51 53 53 53 57 57 63 62 61 61 62 62 63 64 63 63 63 62 61 61 59 59 59 58 57 56 57 57 56 55 52 51 54 55 54 53
25 29 38 41 44 48 52 53 55 55 55 56 59 63 61 61 61 61 61 62 62 62 62 63 62 60 60 59 58 58 57 57 56 56 55 55 55 55 52 49 52 54 53
37 37 40 41 43 48 51 53 53 51 56 57 59 62 61 60 60 61 60 61 62 62 63 62 62 61 59 59 58 58 57 57 57 56 55 54 53 53 53 50 52 52 52
38 37 37 38 44 47 50 50 50 49 52 58 58 61 62 61 60 60 61 60 61 61 62 62 61 61 59 58 58 58 57 56 56 56 56 56 56 55 54 51 52 51 52
39 39 40 44 45 47 47 48 47 48 50 52 57 59 62 61 60 61 60 60 60 60 62 62 61 60 60 59 58 58 57 56 56 55 56 57 57 57 55 53 50 49 49
37 39 42 45 45 45 47 48 47 48 50 52 53 59 60 61 60 61 61 60 59 59 61 61 60 59 59 59 58 57 57 56 56 56 56 56 57 57 57 56 54 49 46
38 40 41 44 44 45 47 47 46 46 49 51 53 58 58 59 60 61 60 59 59 59 60 60 59 58 58 58 57 57 57 56 56 56 56 56 56 57 57 56 55 53 49
43 43 43 43 44 45 44 44 44 44 46 48 54 57 57 59 60 60 60 59 59 59 59 59 59 58 57 57 57 56 56 55 55 56 56 55 56 56 56 56 54 53 52
42 42 42 42 42 43 43 42 42 43 44 46 55 57 59 58 59 60 59 59 57 58 59 59 58 57 56 56 56 55 56 55 55 55 55 55 56 55 55 55 54 54 53
39 39 40 40 40 41 42 41 41 42 43 45 53 57 57 58 58 59 57 57 57 57 56 58 57 56 56 55 55 55 55 55 55 55 55 55 55 54 55 54 53 53 53
38 38 39 39 39 40 40 40 40 41 41 43 52 56 56 57 57 57 57 57 57 55 54 58 57 56 55 55 55 54 54 54 55 55 55 55 55 53 53 53 53 53 52
36 36 37 37 37 37 38 37 38 39 40 41 48 55 56 57 57 56 56 56 57 55 55 56 56 56 55 55 54 54 53 53 53 54 54 55 53 50 51 53 53 53 52
35 35 35 34 34 35 35 36 36 37 39 42 47 56 56 56 57 56 56 56 56 55 54 53 56 55 54 46 46 51 53 53 53 52 53 53 48 48 46 46 47 50 52
33 33 34 33 34 34 35 35 36 37 37 43 53 55 55 56 56 56 55 55 55 55 55 54 54 54 53 45 45 45 53 52 52 52 52 52 51 48 50 41 38 36 36
32 32 33 32 33 33 34 35 35 35 35 36 41 50 55 55 56 55 55 55 55 55 55 55 55 54 50 43 43 43 53 52 52 51 52 52 50 50 47 40 34 33 33
32 32 32 32 33 33 34 34 33 34 34 33 35 38 43 54 55 54 54 55 54 55 53 50 47 46 40 38 40 45 52 52 51 50 43 49 51 44 42 38 33 30 30
31 32 32 32 32 32 34 33 32 32 32 32 33 35 37 42 46 49 51 50 50 43 39 36 35 35 38 36 39 43 51 44 37 35 35 35 42 39 38 38 33 29 27
29 30 30 30 31 33 33 32 32 31 32 32 33 34 34 36 37 39 41 41 38 35 33 31 31 32 33 34 38 40 46 38 34 33 32 33 34 36 35 36 34 28 26
29 29 28 29 30 31 31 32 31 32 32 32 31 32 32 33 34 34 35 35 34 32 30 29 28 28 30 32 34 35 35 34 32 30 31 31 32 32 31 29 29 27 26
29 29 29 28 29 29 30 30 32 32 32 30 29 30 31 32 32 32 32 32 31 30 28 27 26 26 26 27 30 30 30 30 28 28 29 29 28 28 27 27 27 26 25
29 28 28 28 27 29 30 30 32 33 32 30 29 28 28 28 30 30 30 29 29 28 27 26 25 26 26 26 27 26 27 27 26 26 26 26 26 25 25 26 26 25 24
29 28 27 26 26 28 28 30 31 32 30 30 28 28 27 26 26 28 28 27 28 28 27 27 27 26 25 27 28 27 27 28 28 27 27 26 26 25 25 25 25 26 25
25 25 25 26 26 26 26 29 30 30 29 28 28 28 27 25 24 24 25 29 29 30 30 30 29 30 31 32 31 32 32 31 29 27 26 26 25 24 23 22 20 20 19

GFSMW_sfc_dewp_117.txt.gz
Dewpoint
27 28 29 30 31 38 44 56 64 65 66 65 65 64 64 64 63 64 65 66 65 66 66 64 64 65 63 62 62 62 61 60 60 60 59 60 60 60 60 60 59 58 58
30 28 28 37 37 42 46 46 58 65 66 65 64 64 64 64 63 63 64 64 64 65 65 65 63 63 62 62 62 60 59 59 61 58 56 54 56 59 60 59 58 58 57
30 32 38 39 42 44 44 45 48 51 60 64 63 63 62 62 61 61 62 63 63 64 64 64 63 62 61 60 60 60 59 57 59 59 56 53 51 55 58 58 57 56 56
31 31 40 42 42 44 48 48 51 51 52 53 59 61 61 59 60 61 61 62 64 64 64 64 63 61 60 60 60 60 59 57 56 58 58 55 55 53 52 56 57 56 55
25 32 39 41 42 45 48 50 51 51 52 53 55 61 60 61 60 60 60 60 63 64 64 63 62 61 60 59 59 59 58 58 57 57 57 55 55 55 53 51 54 56 56
35 38 39 42 46 46 47 47 47 48 50 53 54 61 60 60 59 60 60 61 61 63 62 63 62 61 60 59 59 59 58 58 57 57 56 55 54 53 53 52 53 53 54
35 38 43 44 44 45 45 45 46 46 47 49 51 54 61 60 59 60 60 60 60 61 62 62 62 60 59 59 59 58 58 57 57 57 56 56 56 55 54 52 53 52 54
40 43 43 42 43 44 45 45 44 44 45 48 50 51 53 61 60 60 61 60 60 61 62 62 61 60 59 59 59 58 58 57 57 57 56 56 56 56 55 53 52 51 52
41 41 42 42 43 44 45 44 44 44 44 45 47 48 52 58 60 60 60 61 61 61 62 62 61 60 60 59 58 58 57 57 56 56 56 56 57 57 56 55 53 50 49
42 42 42 43 43 44 44 44 43 42 42 43 44 46 49 52 60 60 59 61 61 61 61 61 61 60 59 59 58 57 57 56 56 56 56 56 57 57 56 56 55 54 51
40 40 40 41 41 41 41 41 41 41 41 41 42 44 46 51 59 59 59 60 60 60 61 60 59 59 58 58 58 57 57 56 56 56 56 55 56 56 56 56 55 54 53
39 39 39 39 39 39 39 39 39 39 40 40 41 43 46 56 58 58 59 60 59 60 59 58 58 58 58 58 57 56 56 55 55 55 55 55 56 56 56 55 54 54 53
37 37 37 36 37 37 37 37 38 38 38 39 39 42 45 58 58 58 59 59 59 59 59 58 58 58 57 56 56 56 56 55 55 55 55 55 55 55 55 55 54 54 54
35 35 35 34 35 36 36 36 36 37 38 37 38 41 44 56 58 58 58 58 58 58 58 58 58 57 56 56 56 56 55 56 55 55 55 55 55 55 55 54 54 53 53
34 34 34 34 33 34 34 35 36 36 37 37 38 40 44 55 57 58 58 58 57 56 57 58 57 56 56 55 55 55 54 54 54 55 55 55 54 50 53 54 54 53 52
33 33 33 32 32 32 33 34 35 35 36 36 37 39 47 55 56 57 57 57 56 55 56 56 56 55 55 46 46 52 54 53 53 53 53 53 49 48 46 46 47 51 52
32 32 32 31 32 32 33 34 34 34 35 35 36 37 40 56 56 56 56 56 56 55 54 55 55 55 55 44 45 45 53 53 53 52 52 51 51 49 49 39 38 37 37
31 32 32 31 31 32 32 34 33 33 32 33 34 35 37 45 56 56 56 56 56 55 54 54 55 53 47 43 43 43 53 52 52 52 52 51 50 49 44 39 35 33 34
31 32 32 31 32 31 32 33 32 31 31 31 32 34 36 38 54 55 55 56 55 55 51 51 48 44 41 39 42 46 52 51 48 45 43 51 50 42 41 37 32 31 30
30 31 32 30 31 31 31 33 32 31 30 30 32 33 35 35 38 51 55 54 48 42 39 35 35 36 38 37 40 46 50 41 37 35 35 35 42 38 38 37 34 30 28
29 29 30 29 29 31 31 30 31 30 30 31 31 32 33 34 34 38 45 42 37 35 32 31 31 32 33 35 39 42 44 37 33 32 32 33 35 36 36 37 35 31 27
28 28 28 28 29 30 30 29 30 31 31 30 29 29 31 33 33 33 35 35 34 31 30 28 27 29 31 33 35 36 35 35 32 30 31 32 33 32 31 30 29 28 27
28 29 28 27 27 28 29 27 31 31 31 29 27 27 29 30 32 31 31 30 31 29 28 27 26 25 27 29 31 31 31 30 29 29 29 29 29 28 28 28 28 26 25
28 28 27 25 25 26 28 29 31 32 30 29 28 27 26 27 29 29 30 29 28 27 27 26 25 25 26 26 27 27 28 28 27 26 26 26 26 26 26 25 25 25 25
27 27 26 25 24 26 27 29 29 30 30 29 29 27 26 26 27 28 28 28 29 29 27 27 28 26 26 28 29 28 27 28 28 28 27 26 25 24 24 24 24 24 24
25 24 24 24 24 25 26 28 29 28 28 28 28 28 27 26 25 26 26 30 31 32 32 32 30 31 32 32 32 31 31 30 28 26 24 24 23 22 22 21 21 21 20

GFSMW_sfc_dewp_120.txt.gz
Dewpoint
28 28 30 30 31 30 38 57 59 62 65 65 64 63 64 65 65 66 66 66 66 66 65 65 65 65 63 61 61 61 61 61 61 59 59 60 60 60 60 61 61 60 59
27 28 29 30 35 39 44 58 60 63 64 65 65 65 64 63 64 65 65 66 65 65 66 65 64 65 63 61 61 61 60 59 61 58 56 54 57 59 60 60 60 60 59
27 28 28 36 43 45 52 62 65 65 65 65 64 63 62 61 61 61 63 65 65 65 65 65 64 64 63 62 62 61 60 58 60 59 56 53 52 55 59 59 59 59 59
30 33 39 42 43 46 50 51 55 57 57 61 62 60 62 61 61 62 63 63 64 64 64 64 63 63 63 62 61 61 60 59 57 59 58 56 55 52 52 57 58 58 57
30 41 44 45 46 45 46 47 47 48 52 54 56 61 60 61 60 60 61 62 63 64 64 64 63 63 62 61 61 60 59 59 57 57 57 56 55 55 53 52 55 57 57
43 43 44 44 44 45 45 45 45 45 48 50 52 56 58 59 59 59 60 60 61 64 64 64 63 62 61 60 60 59 59 58 58 57 58 56 55 54 54 52 54 54 56
42 42 43 43 44 43 43 43 44 44 45 45 47 50 51 53 59 60 61 61 60 59 62 63 62 62 61 60 60 59 59 58 58 57 57 57 57 56 55 54 54 54 55
41 42 42 43 43 43 43 42 42 42 43 43 43 45 47 49 52 59 60 61 61 61 62 62 62 62 61 60 59 59 59 59 58 57 57 57 56 56 55 54 53 52 53
42 42 42 43 42 42 42 42 41 41 41 42 42 43 44 45 49 52 60 61 60 60 60 62 62 61 60 59 59 59 58 58 57 57 57 56 56 57 56 55 55 52 50
39 39 39 40 40 40 40 40 39 39 39 39 40 41 41 43 46 49 53 60 61 60 61 62 61 61 60 59 59 58 58 57 57 57 56 56 57 57 57 56 56 55 52
38 37 37 38 38 38 37 37 38 37 38 38 39 39 40 41 45 47 52 59 60 61 61 62 61 60 59 59 58 58 57 57 56 56 56 56 57 56 56 56 55 54 54
37 36 35 35 36 36 36 36 36 36 38 38 38 39 39 41 44 47 55 59 60 60 61 61 61 60 59 59 58 57 57 56 56 56 56 55 56 56 56 55 54 54 54
36 35 34 33 34 34 34 34 35 36 37 37 38 38 39 41 43 45 57 59 59 59 60 61 59 59 58 58 57 57 56 56 56 56 55 55 56 56 56 55 54 54 54
34 33 33 32 33 33 33 34 34 35 36 36 37 37 38 40 42 45 54 59 59 59 59 59 58 58 57 57 57 56 56 56 55 55 56 56 55 55 55 54 54 54 53
32 32 32 31 31 32 32 33 34 34 34 35 36 36 38 39 41 47 53 58 58 59 59 58 58 57 56 57 56 56 56 55 55 55 55 56 54 50 53 55 54 54 53
32 32 31 31 31 31 32 32 33 32 33 33 33 34 36 38 40 44 54 57 57 58 58 57 56 56 56 46 47 52 55 55 54 54 54 55 49 49 45 46 47 52 53
30 30 30 30 30 30 32 32 32 32 31 32 32 33 35 36 38 41 54 57 57 57 57 57 56 55 55 45 45 45 54 54 54 53 53 52 52 49 50 39 39 38 39
30 31 31 30 29 31 30 31 31 31 30 30 30 31 33 34 37 39 47 56 56 56 56 55 55 55 50 43 43 43 53 52 52 52 52 52 50 48 43 39 35 34 34
29 30 30 29 30 30 29 30 30 30 29 29 29 30 31 33 36 37 40 56 56 55 55 54 52 49 44 41 42 47 51 51 48 46 43 51 49 40 41 37 33 31 31
28 28 28 28 28 28 29 29 29 28 28 29 29 29 30 31 34 35 37 55 52 44 42 38 38 39 40 39 41 47 48 41 37 35 36 35 45 37 37 38 35 31 29
27 28 27 27 27 28 29 28 28 27 30 29 28 28 29 30 33 34 35 40 39 36 34 32 32 33 34 37 40 43 45 38 34 33 32 33 36 37 37 37 36 32 28
27 27 26 26 27 27 29 27 28 30 30 29 26 26 28 29 31 33 32 33 34 32 31 31 29 30 32 34 37 38 36 35 32 30 31 33 34 34 32 31 30 29 27
26 26 26 25 26 27 28 26 29 30 29 27 26 26 27 29 30 30 30 30 31 30 31 30 27 26 29 31 32 32 32 31 30 30 31 31 31 30 29 30 29 27 26
24 23 23 24 24 27 26 27 28 29 29 28 26 26 26 27 28 30 29 29 28 28 28 27 26 26 27 27 28 29 29 29 27 27 26 26 26 26 26 26 26 25 25
23 22 21 22 23 25 25 27 28 28 28 27 27 26 26 26 27 28 29 29 30 30 28 28 28 27 26 28 29 28 27 27 28 27 27 26 25 24 24 24 24 25 24
22 21 21 21 22 23 25 26 27 27 27 27 26 26 25 25 25 26 26 30 30 31 31 31 30 30 31 31 31 31 30 30 29 25 23 23 23 22 22 22 22 23 23

GFSMW_sfc_dewp_123.txt.gz
Dewpoint
27 28 28 29 29 34 51 59 61 64 65 65 64 63 64 65 65 66 66 66 66 65 65 65 63 64 63 61 61 60 61 61 62 59 59 60 61 61 61 61 61 61 61
28 28 28 29 30 30 34 55 59 61 64 64 64 64 65 64 65 65 66 66 66 66 65 64 64 64 64 62 61 62 60 61 61 59 57 55 57 59 60 61 61 61 61
27 28 29 30 31 34 39 50 56 59 63 64 64 62 62 61 61 62 64 65 65 66 65 65 64 63 63 62 61 62 61 59 60 59 56 53 51 54 59 59 60 60 60
26 29 42 45 48 49 55 56 57 59 62 63 62 61 61 60 62 63 64 64 64 65 65 64 64 64 64 63 62 63 62 60 59 59 58 56 54 52 52 57 59 60 59
34 44 45 45 45 45 46 47 49 50 52 56 59 60 60 61 61 60 61 62 64 64 64 65 64 64 64 63 63 62 61 60 59 58 57 55 53 55 53 52 55 58 59
43 43 43 43 43 43 43 44 45 45 47 50 50 51 51 54 58 59 60 60 61 63 64 64 64 64 63 62 62 61 61 60 59 59 57 56 55 54 54 52 54 55 57
42 42 42 42 42 42 42 42 43 43 45 45 46 47 49 50 50 56 59 60 59 60 62 63 63 63 62 62 61 61 60 59 58 58 57 57 56 56 55 54 54 54 55
42 41 41 41 41 40 40 40 40 40 41 42 42 43 45 46 49 53 57 60 61 61 62 62 62 62 62 60 60 60 60 59 58 57 57 57 57 58 56 55 54 52 53
40 39 40 40 39 38 39 39 38 39 39 40 41 41 42 42 44 46 49 52 60 61 61 61 62 62 61 61 60 60 59 59 58 58 57 57 57 57 57 56 56 54 50
36 37 37 37 36 36 37 37 37 37 37 38 39 39 40 41 42 44 47 49 52 60 60 60 61 61 61 61 60 59 59 58 58 58 57 57 57 56 57 56 56 55 53
34 34 35 35 35 35 35 35 35 36 36 37 37 38 38 39 40 42 45 47 50 53 60 60 60 61 60 60 59 59 58 58 57 57 56 56 57 56 56 56 55 54 54
34 33 33 33 33 33 34 34 35 35 36 36 36 37 38 39 40 41 43 46 49 54 58 60 60 61 60 59 59 58 58 57 56 56 56 56 56 56 56 56 55 55 54
34 33 32 32 32 32 33 33 34 34 34 34 35 36 37 38 38 40 42 45 47 56 57 60 60 60 60 59 59 58 57 57 56 56 56 55 56 55 56 55 55 55 54
33 32 32 32 31 32 32 32 33 33 33 33 33 35 36 36 37 39 41 44 48 56 59 60 60 60 59 59 58 58 57 56 56 56 56 55 55 55 55 55 54 54 54
32 32 31 30 31 31 31 31 33 33 32 32 32 33 34 35 36 38 40 43 48 56 59 59 59 59 59 58 57 57 56 56 55 55 55 55 54 50 53 55 54 54 53
31 31 30 30 30 30 30 31 32 32 32 31 31 32 32 33 35 37 39 41 45 55 58 59 58 58 58 48 47 53 55 55 55 54 54 55 50 49 46 46 47 51 53
30 31 29 29 28 28 29 30 32 31 31 30 30 31 31 32 33 35 37 40 43 54 57 58 58 57 57 45 46 46 55 55 54 54 54 53 53 50 52 42 42 39 40
28 29 28 27 29 28 29 30 31 29 29 28 28 29 30 30 32 34 36 38 41 50 57 57 57 56 55 44 44 44 54 54 54 54 54 53 51 51 45 41 36 35 35
27 28 27 28 28 28 28 29 28 28 28 28 27 27 28 29 31 33 34 37 40 44 56 56 55 55 50 42 42 47 52 52 50 49 49 52 50 40 41 38 34 32 32
27 27 26 26 27 28 29 27 28 28 28 28 27 27 28 29 30 31 34 35 38 48 44 39 44 44 45 41 41 48 48 43 39 37 37 36 45 37 37 38 36 33 30
26 26 26 26 28 27 28 26 27 28 29 28 26 26 27 28 29 30 33 34 35 36 35 34 34 35 37 40 42 43 46 40 35 34 33 34 36 37 37 37 37 34 30
24 25 24 25 27 26 27 25 27 28 29 28 25 25 27 28 29 29 30 32 31 33 32 33 32 32 33 37 39 40 38 37 35 32 32 34 35 35 34 32 31 30 29
23 23 22 22 23 26 27 27 26 27 27 25 24 24 25 27 27 28 28 29 30 29 29 31 31 29 30 32 33 34 33 32 31 32 32 32 32 31 30 30 30 29 28
21 20 20 21 22 24 26 27 26 26 26 24 23 24 24 25 26 27 28 28 28 28 28 28 28 28 28 28 28 29 30 30 28 27 26 26 26 26 26 26 26 26 26
21 20 20 20 21 23 24 26 26 26 26 26 24 24 24 24 25 27 27 27 28 29 28 28 28 28 27 29 30 29 27 27 27 27 27 26 25 24 24 24 24 25 24
19 19 20 20 21 22 24 25 27 26 25 25 24 24 24 24 24 24 25 27 28 29 30 30 28 28 30 30 30 29 29 29 28 25 23 22 23 22 22 22 22 23 23

GFSMW_sfc_dewp_126.txt.gz
Dewpoint
22 26 28 29 39 54 59 61 64 65 64 64 63 63 63 64 64 65 64 64 65 65 65 65 63 63 62 63 62 62 61 60 62 60 60 60 61 60 61 61 61 61 61
18 26 28 29 32 43 56 60 62 64 65 64 63 63 64 64 64 65 65 65 65 65 65 65 64 63 63 62 62 62 60 61 62 59 58 56 57 60 61 61 61 61 61
18 27 28 29 30 31 40 56 60 62 64 65 64 61 62 62 63 64 65 65 65 65 65 65 64 63 64 62 62 62 61 59 61 60 57 53 51 55 59 59 60 60 61
19 26 30 44 48 51 48 55 59 60 62 63 63 61 62 62 62 63 64 65 65 65 65 65 64 64 64 62 62 63 62 61 59 60 59 56 54 51 51 56 58 59 59
21 42 45 44 45 48 49 50 51 52 56 60 61 61 59 60 59 61 62 62 64 65 65 64 64 64 64 63 62 62 62 61 60 59 58 56 55 55 54 52 55 58 60
43 42 42 42 42 43 43 43 44 45 47 50 52 54 55 57 59 60 57 59 61 63 64 64 64 64 64 64 63 62 62 61 61 60 59 57 56 54 53 51 52 54 57
40 40 39 39 39 41 42 41 42 42 44 45 47 48 49 51 53 56 60 60 61 62 63 64 64 64 64 63 63 62 62 61 61 59 59 58 57 56 55 53 53 54 56
38 37 38 38 38 39 39 40 40 40 42 44 44 43 44 45 47 49 51 56 60 60 61 63 63 64 63 62 62 62 61 61 61 59 59 58 58 57 56 54 53 53 53
38 37 37 37 37 37 38 38 39 39 39 40 40 40 41 41 42 43 45 48 50 55 60 61 62 63 63 61 61 61 61 60 60 59 59 58 58 58 57 57 56 54 51
37 36 36 36 36 37 37 37 37 36 36 37 38 38 39 39 40 41 42 44 47 50 51 59 61 62 62 62 61 60 60 59 59 59 58 58 57 57 57 57 57 56 54
35 35 35 35 36 35 35 35 34 34 34 35 36 37 38 39 39 40 41 43 45 47 50 52 58 60 60 61 60 59 59 59 58 58 58 57 57 57 57 57 57 56 56
35 35 34 32 32 32 33 33 33 33 34 34 34 35 37 37 38 39 40 41 43 45 47 52 54 57 59 60 59 58 58 58 58 57 57 57 57 56 56 56 56 55 55
33 32 32 31 31 32 32 32 33 33 33 33 33 34 35 35 35 37 38 39 41 43 47 50 55 56 58 60 59 58 58 58 58 57 57 56 56 55 56 56 55 55 55
33 33 32 31 30 31 31 32 32 33 32 32 32 33 33 34 34 35 37 38 40 42 45 49 57 57 58 59 59 58 58 58 58 57 57 56 56 56 56 56 55 55 55
32 32 31 31 30 30 30 31 31 31 32 31 31 32 32 32 33 34 35 37 39 41 44 48 56 58 59 59 59 58 58 57 57 56 56 56 54 51 53 55 55 54 54
31 30 29 29 29 29 29 30 31 30 30 30 30 30 31 31 32 33 34 35 38 40 43 47 56 59 59 49 48 54 57 57 56 55 55 55 50 49 45 47 47 52 53
28 28 27 28 28 28 29 29 30 30 30 29 28 28 29 29 31 31 33 34 36 39 41 45 55 58 58 46 46 46 57 56 55 55 55 54 54 50 52 44 43 43 44
26 26 26 26 28 28 29 28 29 29 29 28 27 27 27 28 29 31 32 33 35 37 39 43 52 57 57 44 44 44 56 55 55 55 54 54 53 53 50 44 39 37 37
27 27 27 27 27 28 28 28 28 28 28 26 26 26 27 28 29 30 31 33 34 36 39 44 52 56 55 43 43 45 55 53 53 53 53 54 52 43 43 42 36 33 32
25 25 25 26 27 28 28 26 27 27 27 28 26 26 26 27 26 29 30 32 33 35 37 38 39 48 53 41 42 48 52 47 42 40 40 42 48 38 39 40 37 35 32
23 23 23 24 25 28 28 26 26 26 27 26 25 26 26 27 26 28 29 31 31 32 34 33 33 34 35 43 41 44 49 44 39 37 35 34 37 37 38 39 39 36 33
21 21 21 21 25 26 27 25 24 27 26 24 23 24 25 27 25 27 27 28 30 30 31 31 31 32 32 35 39 42 41 39 37 34 33 34 36 35 34 33 33 32 31
19 20 19 21 22 25 26 25 26 27 27 23 22 22 25 25 26 25 25 26 27 28 28 29 28 29 30 31 33 35 34 34 33 33 33 33 33 32 31 31 31 31 31
19 19 19 19 20 23 25 26 27 27 26 24 23 23 23 23 25 24 24 24 24 25 26 26 26 28 29 30 29 30 30 30 28 27 27 27 27 27 27 27 27 28 28
19 20 19 19 19 21 24 25 26 26 25 24 23 22 22 21 22 23 24 23 24 26 25 25 26 26 26 29 30 30 29 28 28 28 27 26 26 25 25 25 25 25 25
18 19 19 19 19 21 22 23 26 26 23 23 22 21 21 21 21 21 21 24 25 25 26 28 27 27 29 29 30 30 30 29 28 25 23 23 23 22 22 22 22 23 23

GFSMW_sfc_dewp_132.txt.gz
Dewpoint
21 22 26 27 28 30 29 31 45 62 64 64 64 63 63 63 63 63 64 65 66 67 67 66 66 68 65 65 66 65 65 65 64 64 63 63 64 64 62 62 62 60 61
21 23 25 27 30 30 32 31 38 58 62 63 63 63 63 61 62 63 64 64 65 66 66 66 65 66 64 66 65 65 65 65 65 62 62 60 61 63 63 61 60 61 60
32 30 26 28 29 31 34 30 32 53 61 62 63 62 63 61 60 60 61 64 65 66 66 66 65 65 65 65 65 65 64 63 64 64 60 59 55 56 60 61 60 60 60
40 39 38 32 30 29 32 31 34 48 59 62 61 61 60 58 58 60 60 61 64 65 66 67 66 67 66 65 65 65 65 65 62 64 64 62 59 54 54 57 60 59 59
39 41 36 38 33 27 30 34 35 43 57 62 62 62 61 60 59 60 62 65 65 65 65 66 67 66 66 65 65 64 65 66 65 63 63 63 61 59 56 53 56 58 58
38 38 41 44 43 45 45 44 42 43 56 63 63 64 62 61 63 65 66 65 66 66 67 65 64 64 62 61 62 65 65 65 66 65 64 62 60 59 58 56 56 57 57
37 37 38 39 40 43 48 51 50 48 51 53 55 63 65 66 65 65 65 65 64 63 63 64 62 61 61 60 59 62 64 65 64 65 65 64 63 61 59 59 58 57 57
35 36 36 37 38 38 40 41 42 43 44 46 47 50 52 57 56 58 62 64 64 64 65 63 62 62 61 62 63 63 64 65 65 64 65 64 63 63 61 59 58 57 56
33 34 35 36 37 38 38 37 38 38 41 45 46 47 47 48 51 50 53 57 59 59 61 61 62 62 62 63 64 64 63 64 64 64 66 65 65 65 63 61 61 58 54
32 32 34 35 36 38 37 39 38 37 38 39 41 41 43 44 45 47 48 49 51 51 52 55 58 58 62 64 64 64 64 63 63 64 64 65 64 64 63 62 61 59 58
31 32 32 33 34 36 36 35 36 35 36 38 39 41 40 41 43 44 45 45 46 47 47 48 50 51 54 59 62 63 63 62 62 62 63 63 63 63 63 63 61 60 59
31 31 31 31 30 31 33 33 35 35 36 37 38 39 39 39 40 41 41 42 44 45 44 46 47 48 49 52 53 58 61 61 61 61 61 61 61 62 62 61 61 61 60
31 31 30 31 30 31 31 32 33 33 34 34 34 35 37 38 38 39 38 40 40 41 43 44 45 47 49 50 52 53 55 59 60 60 60 60 61 61 61 60 60 60 58
31 30 30 30 30 31 32 33 32 32 32 32 32 34 35 34 35 36 37 38 39 40 41 43 44 46 47 48 50 51 53 55 58 60 61 59 60 61 60 59 59 59 57
30 30 30 30 31 30 31 32 32 33 33 31 31 31 32 33 34 36 36 38 39 38 39 40 42 44 45 45 49 51 54 55 57 59 59 60 58 54 56 59 59 58 58
29 30 30 29 29 29 29 30 30 31 31 31 30 30 31 31 32 33 35 37 37 37 38 38 40 42 42 40 41 45 51 56 56 57 58 59 53 52 47 48 49 56 58
26 26 26 27 27 28 29 29 29 29 29 30 28 28 29 29 31 31 32 34 35 37 37 37 38 39 41 40 40 40 45 50 58 58 58 58 58 53 57 46 45 46 47
23 24 25 26 27 27 28 28 29 29 29 29 28 28 28 28 29 29 30 32 33 34 35 36 37 38 38 37 37 35 41 50 57 58 58 58 58 57 57 55 52 53 51
23 23 25 25 27 27 27 28 28 28 28 28 27 27 27 27 28 28 29 30 31 32 32 33 34 34 35 34 34 34 40 51 57 58 58 58 57 50 47 53 50 43 36
22 23 23 25 27 28 28 28 29 29 28 29 28 27 28 27 27 28 28 29 30 30 31 30 31 32 32 33 34 34 39 48 54 53 56 45 55 44 43 53 47 44 39
22 22 23 24 25 28 29 28 28 27 29 31 29 29 28 28 28 29 28 27 27 29 31 30 30 29 30 31 32 34 34 41 44 46 47 49 42 42 42 47 47 48 38
23 22 23 23 25 25 28 27 27 29 30 29 29 29 31 29 27 28 29 27 26 27 29 31 31 30 29 29 30 32 32 33 38 40 43 40 41 41 41 40 38 36 36
23 23 23 23 23 24 25 25 27 29 29 28 28 30 32 32 31 29 29 28 29 28 27 27 29 31 29 29 29 31 31 31 33 34 34 35 36 34 33 34 34 34 35
23 23 23 23 23 24 24 25 25 25 27 27 29 30 31 30 31 31 30 27 26 26 27 26 26 28 31 30 27 29 30 30 30 32 32 31 31 32 32 32 32 33 34
21 22 22 22 22 23 23 23 23 23 25 26 26 27 28 30 30 30 28 27 26 25 25 26 25 26 26 27 26 27 27 29 28 28 27 29 29 28 27 27 29 30 30
17 18 20 20 21 20 21 22 23 23 23 23 23 24 24 26 26 27 27 26 24 23 23 23 25 25 25 25 24 25 25 25 26 23 22 22 22 23 24 24 25 26 26

GFSMW_sfc_dewp_135.txt.gz
Dewpoint
36 38 41 35 28 31 30 33 36 43 53 63 64 64 64 64 64 64 66 66 68 68 68 66 67 67 66 67 67 67 64 63 63 64 64 64 64 63 61 59 58 62 61
34 36 39 41 43 42 35 35 35 38 38 61 64 64 64 64 64 64 66 66 68 68 67 67 65 66 65 66 68 66 65 65 65 62 61 59 60 61 62 61 60 62 61
34 35 38 41 44 46 44 31 32 35 38 44 63 63 64 64 64 62 62 65 66 67 67 67 67 66 66 64 67 66 65 63 65 65 60 57 54 54 61 62 61 62 60
32 34 37 39 42 45 46 39 32 32 36 40 59 63 61 60 61 61 62 62 65 65 66 66 68 67 66 64 67 66 65 65 62 65 64 64 62 56 57 59 60 60 60
31 32 35 38 40 42 46 46 36 31 36 39 56 63 63 62 61 60 62 63 66 67 66 66 67 68 68 66 66 66 65 65 64 62 63 64 64 63 61 55 58 59 58
32 31 33 36 37 39 42 48 49 32 36 39 53 63 64 63 59 61 61 62 64 65 67 67 67 68 67 66 65 65 64 65 64 65 64 62 61 60 59 58 58 58 59
32 32 31 33 37 38 39 42 44 47 51 54 57 62 62 64 61 61 61 63 65 65 66 66 67 67 67 66 62 61 60 61 62 64 64 64 63 62 61 61 59 58 58
32 32 31 33 34 37 38 40 41 43 47 49 50 55 55 62 63 63 66 66 66 64 66 67 65 65 65 62 62 61 59 60 62 64 64 64 64 64 62 60 60 59 59
33 33 32 32 34 35 36 38 40 42 44 45 48 50 52 56 55 56 63 65 65 64 64 64 64 63 63 62 63 62 61 61 62 62 63 64 64 64 64 63 62 60 57
32 33 32 32 33 34 37 38 41 41 43 44 46 47 48 51 52 53 52 54 55 57 60 62 63 63 62 63 64 63 62 63 63 63 64 64 63 64 65 64 63 62 59
32 32 32 32 33 33 34 36 36 37 39 41 43 45 46 47 48 48 49 51 52 50 50 51 53 56 59 61 62 63 63 62 63 64 63 62 63 63 64 64 63 62 61
32 32 33 32 32 32 33 34 35 37 37 39 40 42 42 44 43 43 43 46 46 47 46 46 47 48 49 52 54 58 61 62 62 62 62 62 62 63 63 63 62 62 62
32 32 32 32 32 32 32 32 35 35 34 34 36 37 39 40 41 41 41 41 42 43 44 44 45 45 47 48 49 50 51 55 59 61 61 61 62 61 62 62 61 61 61
32 31 31 31 32 32 32 32 33 33 34 33 33 35 35 35 37 38 39 40 40 41 41 42 42 44 44 45 46 47 49 52 53 57 59 60 60 60 61 61 61 61 61
30 31 31 31 31 31 31 33 34 33 34 32 32 32 32 33 34 36 36 38 39 39 40 39 41 42 42 41 44 45 47 50 52 55 55 58 58 53 57 60 60 60 59
29 28 28 28 28 28 29 31 32 33 33 33 32 31 31 31 33 33 34 35 36 37 38 38 39 40 38 38 38 38 41 43 46 50 52 57 53 53 48 48 48 56 58
25 25 25 26 27 28 28 29 30 30 30 30 31 30 30 30 31 31 31 32 34 36 36 36 36 37 38 36 36 35 35 37 41 45 48 51 57 54 59 49 45 46 47
23 24 25 26 27 27 28 28 28 29 29 29 29 29 30 29 30 31 30 31 32 34 34 34 34 34 33 34 34 33 35 38 42 45 49 50 57 57 58 58 55 54 54
23 24 25 26 27 27 28 28 28 28 28 28 28 28 29 29 29 30 30 30 30 32 32 32 32 32 31 31 32 32 34 36 40 45 51 54 57 52 48 57 53 50 47
23 23 24 25 27 29 28 28 29 29 28 29 29 28 29 29 28 30 29 29 29 29 29 29 32 31 31 30 30 30 32 34 35 38 49 46 53 47 43 55 53 47 47
22 23 23 25 26 29 29 28 28 28 30 31 30 30 29 28 28 28 28 28 27 29 29 29 30 29 31 30 29 30 31 31 31 35 39 46 43 42 42 45 54 49 44
23 23 23 23 25 25 29 27 27 30 31 31 31 31 32 30 29 29 29 27 26 27 29 29 29 31 30 29 27 28 29 31 30 31 33 34 36 39 40 41 44 40 38
25 23 23 23 23 24 27 26 28 29 30 30 30 31 32 32 32 31 29 28 27 26 26 26 26 28 30 29 26 26 28 29 30 31 32 32 33 34 33 35 36 36 37
25 24 23 23 23 24 23 25 25 25 28 29 30 30 31 30 32 31 30 28 26 25 25 24 24 26 26 26 28 27 28 27 30 29 29 29 30 31 31 32 33 33 34
21 23 23 22 22 23 22 22 23 23 24 27 27 27 28 29 30 32 30 29 28 26 24 23 24 24 24 25 25 25 26 26 27 26 24 24 24 24 25 27 27 30 32
17 18 19 20 20 20 20 21 23 23 22 23 23 25 26 27 27 29 30 28 26 25 25 23 24 25 23 23 25 25 25 25 23 25 22 20 20 21 22 22 23 25 26

GFSMW_sfc_dewp_138.txt.gz
Dewpoint
32 33 35 36 39 41 44 46 48 48 42 41 61 64 63 65 66 64 66 67 69 68 68 67 67 66 66 66 66 66 64 63 64 61 62 62 63 63 62 61 60 61 62
32 33 33 34 37 39 42 45 45 47 43 35 38 63 64 65 65 65 65 65 68 67 67 68 66 66 65 67 66 65 64 64 64 61 61 58 60 62 63 62 61 61 61
31 32 32 33 34 37 39 42 43 45 48 40 37 45 64 64 64 64 64 65 68 67 66 67 67 67 65 65 67 65 63 62 64 63 60 57 55 58 61 62 62 61 61
30 31 31 31 31 34 39 39 42 44 47 41 37 44 53 60 61 63 63 65 65 67 67 67 66 66 65 64 66 66 64 63 62 63 63 63 61 57 56 61 62 61 61
30 31 30 31 31 33 36 38 40 42 46 49 43 40 46 58 62 64 63 64 65 67 67 66 65 65 66 65 66 66 65 64 63 62 61 61 62 61 59 56 58 60 60
30 30 31 31 31 32 34 37 38 40 43 48 51 50 46 51 60 61 62 63 64 66 66 66 65 65 66 66 66 65 64 64 63 63 62 61 60 60 59 58 57 58 60
31 31 31 31 31 31 32 36 37 37 41 45 49 52 54 49 55 60 61 61 63 63 65 65 64 65 66 66 65 64 63 63 63 62 61 62 62 62 61 59 57 57 60
31 32 32 32 32 31 32 34 36 36 38 44 47 50 51 54 57 62 61 60 61 63 65 64 65 65 66 65 64 64 63 62 61 60 61 61 62 62 61 58 57 54 58
32 32 32 33 31 32 32 33 35 36 38 42 46 47 49 49 50 56 59 62 62 64 65 66 65 66 65 65 63 61 60 59 59 59 61 62 61 62 61 61 60 56 54
32 33 33 33 32 32 34 33 35 35 37 40 43 45 45 47 47 49 52 56 58 63 64 64 64 65 65 63 62 61 62 61 61 60 61 61 61 62 63 63 63 61 58
33 33 33 33 33 33 33 33 33 34 36 37 40 43 44 44 45 47 48 50 52 52 52 53 55 61 62 62 62 62 62 61 61 61 60 61 62 62 62 62 62 62 61
32 32 33 33 32 31 32 32 33 33 34 36 38 37 39 41 41 43 46 46 48 50 51 52 52 52 52 55 56 59 61 60 61 61 61 61 61 61 61 61 62 62 61
31 31 31 32 32 31 32 32 33 33 33 35 36 36 37 38 40 41 44 45 45 44 45 47 48 49 49 49 50 51 51 52 55 59 60 60 61 61 61 61 61 61 61
30 31 30 31 30 31 32 32 32 33 33 34 33 35 36 36 37 38 40 42 43 43 41 42 43 44 45 42 40 42 43 46 48 52 54 55 58 59 58 60 60 60 60
28 29 29 29 29 29 30 31 32 34 34 34 34 34 34 35 35 36 36 39 40 41 41 41 40 41 39 34 34 35 37 39 41 43 46 49 50 47 52 58 58 58 58
28 26 26 27 27 27 29 29 29 31 31 31 32 33 33 33 33 35 34 37 38 38 37 36 37 38 34 34 34 33 33 35 37 39 41 43 45 47 45 45 49 54 58
25 25 25 26 27 27 28 28 28 29 29 30 29 31 31 31 31 31 32 31 33 35 35 35 34 33 32 32 31 32 32 34 36 38 40 41 43 43 47 47 44 44 45
23 23 25 26 27 26 27 28 28 28 28 28 29 29 30 30 31 30 30 31 31 31 31 33 33 32 30 31 31 30 30 33 35 37 39 42 43 45 47 49 54 53 53
23 23 25 25 27 27 27 27 27 27 28 28 28 29 29 29 29 29 29 28 30 30 30 30 31 30 30 31 29 28 28 31 31 33 35 37 39 42 44 49 52 52 49
22 22 23 25 27 28 28 27 27 28 28 29 29 29 29 28 28 28 27 27 27 27 27 28 29 29 28 29 28 27 28 29 30 31 34 34 34 34 35 39 51 52 48
22 23 22 24 26 27 28 26 26 27 29 30 30 30 29 29 29 27 27 25 24 25 25 26 27 27 27 26 27 27 25 27 28 29 31 32 33 33 35 36 41 49 46
22 22 23 23 25 25 26 25 25 28 28 29 29 30 29 29 29 28 27 25 23 23 23 24 24 25 25 25 26 25 25 26 28 29 29 29 29 31 33 33 33 36 37
24 23 24 23 23 24 25 24 25 27 26 28 28 28 28 29 30 28 27 24 24 22 21 21 22 22 23 25 26 25 25 25 25 27 26 25 26 27 28 29 30 33 35
25 24 23 23 23 24 23 24 25 24 26 26 26 27 27 27 28 29 27 26 24 22 22 21 21 21 21 23 25 25 24 25 25 24 23 23 23 23 24 25 27 28 31
21 23 22 23 22 22 21 22 24 24 24 24 25 25 25 26 26 28 29 26 26 24 22 22 23 22 20 22 24 24 22 22 22 22 21 21 21 20 21 22 23 25 26
16 18 18 19 20 19 18 20 23 24 23 22 23 25 24 24 25 25 26 28 26 22 20 22 23 24 23 22 22 23 22 22 20 17 17 18 20 20 20 21 22 23 24

GFSMW_sfc_dewp_141.txt.gz
Dewpoint
31 31 31 31 32 31 32 35 37 38 41 42 45 49 52 62 64 65 66 66 68 67 67 67 67 67 66 66 65 64 63 62 63 60 60 61 62 61 62 61 61 61 61
30 31 31 31 31 31 32 32 35 37 39 42 43 47 50 62 63 64 64 66 66 68 66 66 66 67 66 66 65 63 62 62 63 60 58 57 58 61 61 62 61 60 61
29 30 30 30 30 30 31 32 33 36 38 41 43 47 50 57 61 63 63 64 65 66 67 65 66 66 65 65 65 64 62 61 62 61 58 55 54 57 60 61 62 61 61
29 29 30 29 30 29 30 32 32 35 37 39 42 45 48 46 42 54 60 61 63 65 67 66 66 65 65 65 65 65 63 63 61 61 61 59 58 55 55 61 61 61 61
30 30 30 30 30 30 30 31 32 35 36 37 41 44 47 51 51 57 61 62 63 65 65 66 66 66 65 65 66 65 63 63 62 62 60 60 59 58 56 54 58 62 62
30 30 30 30 30 30 30 31 31 32 36 37 40 43 45 48 51 52 56 60 61 63 64 65 65 66 65 64 65 66 64 63 62 62 60 59 59 59 58 56 55 57 60
30 30 30 29 30 30 31 32 33 32 35 36 40 42 44 47 49 52 52 56 59 60 62 66 64 65 65 64 64 65 65 63 62 62 61 61 60 59 58 57 56 56 59
30 31 31 31 30 31 31 34 33 33 34 36 38 40 45 46 47 48 52 57 56 59 62 64 65 63 65 65 65 65 64 63 63 61 60 61 61 61 60 58 56 54 56
30 31 31 31 32 33 33 34 34 35 35 35 36 38 42 43 43 47 51 54 53 53 54 62 65 63 63 65 65 64 63 62 62 60 59 60 60 61 61 60 58 54 50
30 30 31 32 33 33 33 34 34 34 35 34 35 37 37 41 42 46 45 47 49 50 51 57 62 63 63 64 64 63 62 61 58 59 58 59 60 60 61 60 59 58 55
29 30 30 32 33 32 32 33 33 34 34 34 34 36 36 39 40 41 44 45 47 47 47 49 62 63 63 64 63 62 60 60 59 59 59 59 60 60 61 61 61 60 59
30 30 29 29 30 30 31 32 33 32 33 33 34 35 36 37 38 39 41 42 44 45 45 46 51 54 53 55 56 56 56 60 60 60 59 59 60 60 60 61 60 60 61
29 29 29 28 27 28 30 31 32 32 32 33 33 33 35 36 36 37 38 39 41 43 44 44 43 41 41 43 43 45 45 45 46 50 56 59 60 60 60 59 59 60 60
28 28 29 27 27 27 29 29 31 32 32 33 32 33 33 35 36 36 37 37 39 39 41 42 40 36 35 34 36 37 39 40 41 43 45 46 48 50 51 56 59 60 59
27 28 28 28 27 27 29 29 29 30 32 32 32 32 34 33 35 35 35 35 35 38 38 39 38 35 32 31 32 31 33 36 37 40 40 41 42 42 42 46 50 56 58
25 26 27 26 25 26 28 28 28 29 29 31 31 32 32 31 33 33 35 34 34 33 34 35 35 33 32 33 31 31 33 33 35 36 38 40 41 42 40 40 41 44 48
24 25 26 25 25 25 27 27 27 28 28 29 29 30 29 29 29 29 30 31 32 33 33 33 33 33 31 32 32 30 30 32 34 35 36 37 38 40 42 42 41 42 40
22 23 26 25 25 26 27 27 27 28 28 28 28 29 29 27 27 26 26 27 27 29 30 31 30 30 29 30 30 29 29 30 31 32 33 35 37 38 34 36 38 43 47
22 23 25 25 26 27 26 26 27 27 28 29 29 28 28 27 26 24 24 25 25 25 26 26 26 26 25 28 28 27 27 27 28 30 32 33 33 32 33 34 36 38 43
22 22 23 24 25 27 26 24 26 26 27 29 29 28 29 28 26 25 24 23 23 22 24 23 24 24 24 27 27 27 26 26 27 29 30 30 29 30 31 33 34 35 40
22 22 22 24 25 26 24 23 24 25 28 29 27 28 28 29 26 26 24 22 22 21 22 22 22 22 24 26 27 26 25 26 25 25 26 26 27 28 29 30 30 30 33
22 22 23 22 24 23 23 21 24 26 28 26 26 26 26 28 29 26 24 23 22 21 22 21 21 22 23 25 25 25 25 25 24 24 24 24 25 25 26 27 27 29 32
20 22 22 22 23 22 22 22 25 25 26 23 24 24 24 25 28 26 23 22 20 20 20 20 20 20 22 23 25 24 23 22 22 24 23 23 23 23 23 24 25 26 27
18 18 19 22 21 20 20 22 24 24 23 22 24 23 22 23 24 27 25 21 19 18 19 20 19 19 20 22 23 22 22 20 19 18 19 19 21 19 20 22 23 24 25
20 19 17 20 19 18 18 20 22 26 20 21 24 22 22 22 22 23 26 22 21 19 18 20 20 19 18 21 21 20 20 18 16 14 14 14 15 16 19 20 20 22 23
19 19 19 19 20 18 17 19 21 26 20 20 22 21 20 22 21 20 20 24 24 19 18 20 20 20 21 20 20 19 19 18 16 12 11 11 12 12 15 17 19 20 21

GFSMW_sfc_dewp_144.txt.gz
Dewpoint
30 30 30 30 30 30 30 30 32 33 34 37 38 39 42 44 49 52 61 65 65 67 67 66 66 67 66 65 64 64 63 62 62 59 59 60 62 61 61 60 60 61 61
29 30 30 30 30 30 30 30 30 32 33 35 36 38 41 46 48 51 55 64 64 65 65 66 66 66 66 66 65 64 63 62 62 59 58 56 58 60 60 61 60 60 61
29 29 30 30 30 29 30 30 30 31 32 34 37 38 41 44 48 50 51 59 64 64 64 65 67 66 66 65 65 64 63 61 61 61 57 54 54 55 58 60 61 60 60
30 30 29 29 30 30 30 30 31 31 32 34 36 37 39 40 44 46 50 52 55 63 64 64 65 67 66 65 65 65 64 62 60 59 60 57 56 54 53 58 60 61 60
30 30 30 29 29 30 30 30 31 31 32 33 35 37 39 41 44 46 50 51 53 60 62 62 64 65 66 65 65 65 64 63 62 61 60 57 57 56 54 54 57 59 61
30 30 30 29 29 30 30 30 30 32 33 33 35 36 38 39 42 44 46 51 53 56 60 62 63 63 64 65 65 65 65 63 62 62 61 60 58 57 56 54 54 56 59
30 30 29 29 29 29 29 30 31 32 33 34 35 35 38 38 40 41 43 45 49 53 56 60 61 63 63 62 65 65 64 64 62 62 61 62 61 58 58 56 55 55 56
29 29 28 29 29 30 29 30 30 33 34 35 35 35 37 37 39 41 42 45 48 53 55 54 57 58 60 63 62 64 65 64 63 62 62 61 60 60 58 58 56 53 53
30 29 30 29 29 29 30 31 32 32 34 35 35 33 34 36 37 39 42 45 47 50 51 51 53 58 59 59 61 64 64 64 63 62 61 61 60 60 60 59 57 55 51
29 28 29 30 29 29 30 30 32 32 33 33 34 34 34 36 37 37 38 41 44 47 48 48 51 56 60 59 61 63 64 64 63 63 61 61 60 61 60 60 59 57 56
30 28 27 28 28 28 29 29 31 31 32 33 34 34 34 35 36 37 37 40 43 46 43 41 42 46 59 52 47 57 63 62 62 60 60 59 59 59 59 59 59 58 57
26 30 27 26 26 26 29 29 30 30 32 33 33 33 34 34 34 35 35 38 40 43 41 39 38 38 41 42 38 42 60 61 59 58 58 58 58 57 58 59 60 60 59
25 23 24 25 26 26 28 29 29 30 31 32 32 32 33 33 33 34 34 35 38 40 39 37 36 37 36 36 35 36 43 50 50 50 50 49 52 57 57 59 59 60 60
25 24 24 24 25 25 27 27 29 30 30 31 31 31 32 32 32 33 34 34 36 36 36 35 35 35 34 35 35 34 36 43 44 46 46 46 44 43 43 46 49 54 59
25 24 22 24 24 25 27 27 29 29 30 30 30 30 31 32 32 32 33 33 34 34 33 32 31 32 33 34 34 34 34 37 40 41 41 42 42 42 42 43 45 46 49
25 26 24 24 24 25 26 26 27 28 30 29 28 29 29 29 29 29 31 30 32 32 31 31 30 29 31 33 34 33 32 33 35 36 36 37 39 39 37 37 37 38 43
23 25 23 23 24 25 25 25 26 27 28 28 28 28 28 26 25 25 26 25 28 28 28 28 27 28 30 32 32 32 32 32 32 33 34 34 35 36 32 34 35 36 38
22 25 25 23 25 24 24 24 26 26 28 27 28 28 27 25 24 23 23 23 24 24 23 24 25 26 29 30 30 30 31 31 32 32 32 31 31 30 31 32 34 36 38
22 23 24 24 26 24 24 23 25 25 26 26 27 27 30 25 24 23 22 22 22 22 22 22 23 24 26 30 29 28 28 27 29 29 29 28 27 28 30 30 32 33 35
21 22 22 24 24 23 23 23 24 24 25 26 26 26 28 25 24 23 22 21 21 20 20 20 22 24 25 27 27 26 25 25 25 26 25 26 26 26 27 28 28 27 29
21 23 22 22 23 22 21 20 23 24 25 24 25 25 25 29 25 23 20 20 19 20 20 20 21 21 23 23 25 25 22 22 23 23 23 24 25 25 26 26 26 26 28
22 22 21 22 21 21 20 20 23 25 23 21 22 22 23 25 26 22 21 19 19 19 19 19 19 20 22 23 23 24 22 20 19 20 21 22 24 24 24 24 25 26 26
18 21 19 21 19 19 19 19 22 23 20 20 20 20 21 22 25 21 19 18 18 18 18 17 17 18 21 21 22 21 21 19 16 18 18 19 19 20 21 22 23 24 24
14 15 17 15 15 18 19 20 21 22 21 21 19 20 20 20 20 23 20 17 17 17 17 17 16 16 18 20 20 19 18 17 15 14 14 14 16 14 15 18 20 22 23
19 17 14 15 15 17 17 19 21 22 20 21 20 19 19 19 18 18 22 16 16 17 16 18 16 16 16 18 20 19 17 15 14 11 11 11 11 11 12 13 16 19 20
18 17 17 16 15 16 16 17 19 23 19 19 19 18 18 17 17 16 15 19 17 17 17 17 16 15 17 17 17 17 17 17 14 8 7 7 7 8 9 10 12 15 16